sat.trackr.live / text

‹ back to catalog

STARLINK-3574

NORAD 51874 · 2022-022Y

PAYLOAD ACTIVE UNKNOWN

§ Identity

Operator
Country
US
Launch date
2022-03-03
Launch site
AFETR
Launch vehicle
Mass (kg)
RCS (m²)

Purposes: comms

External: N2YO · Heavens-Above · Gunter

§ Orbital elements

Epoch: 2026-05-25T01:14:33.664992Z

Period
95.44 min
Inclination
53.2139°
Eccentricity
0.0001729
Mean motion
15.08841896 rev/d
Perigee alt
538.5 km
Apogee alt
540.9 km
Semi-major
6,917.9 km
B*
5.4503e-6
RAAN
26.3154°
Arg perigee
100.2833°
Mean anomaly
259.8355°
Rev number
23,463

§ Raw data

STARLINK-35741 51874U 22022Y   26145.05177853 -.00000201  00000+0  54503-5 0  99922 51874  53.2139  26.3154 0001729 100.2833 259.8355 15.08841896234632

JSON: /api/v1/satellites/51874 · /tle

For live sub-satellite position, see the globe view (requires WebGL).

§ Visibility from observer

Set your observer location to see the next 7 days of passes ≥ 10°. The values pass through the URL so the page stays shareable.

No JS? Fill the form by hand. The geolocation button needs JavaScript.